Total_Precipitation_Accumulation
0.06 0.22 0.53 0.79 1.19 1.64 1.54 1.05 0.84 0.60 0.49 0.51 0.41 0.40 0.51 0.79 1.23 2.19 2.35 1.80 1.24 1.18 1.38 1.57 1.62 1.59 1.51 1.50 1.68 1.76 1.76 1.80 1.86 2.01 2.10 2.18 2.20 2.07 1.96 1.98 2.02 2.14 2.16 2.19 2.32 2.37 2.37 2.34 2.37
0.12 0.29 0.54 0.89 1.38 1.79 1.48 0.83 0.57 0.46 0.41 0.44 0.40 0.42 0.63 0.73 0.79 1.35 1.68 1.48 1.00 0.94 1.12 1.27 1.42 1.37 1.31 1.35 1.41 1.53 1.63 1.62 1.74 2.01 2.10 2.17 2.11 2.01 1.95 1.88 1.93 2.09 2.25 2.35 2.32 2.20 2.09 1.95 1.93
0.18 0.30 0.51 0.86 1.14 1.31 1.10 0.68 0.45 0.36 0.41 0.55 0.57 0.49 0.77 0.88 0.83 1.22 1.41 1.01 0.80 0.90 1.13 1.25 1.22 1.14 1.07 1.03 1.11 1.30 1.45 1.60 1.73 1.87 1.91 1.96 1.92 1.93 1.84 1.78 1.90 2.14 2.54 2.63 2.36 2.04 1.83 1.73 1.63
0.19 0.35 0.43 0.63 0.72 0.64 0.59 0.49 0.38 0.35 0.38 0.49 0.60 0.66 0.90 0.85 0.78 1.01 1.03 0.79 0.69 0.84 0.92 0.97 1.04 0.97 0.93 0.92 1.00 1.12 1.25 1.45 1.64 1.70 1.76 1.88 1.95 1.90 1.80 1.86 2.02 2.30 2.60 2.53 2.27 1.97 1.72 1.63 1.51
0.23 0.31 0.42 0.59 0.63 0.57 0.46 0.41 0.36 0.43 0.46 0.54 0.61 0.89 1.12 1.02 0.83 0.85 0.84 0.70 0.54 0.58 0.65 0.70 0.83 0.82 0.85 0.84 0.92 1.07 1.26 1.42 1.44 1.56 1.88 2.03 2.00 1.96 1.98 2.05 2.24 2.35 2.38 2.26 2.17 1.92 1.70 1.57 1.52
0.19 0.23 0.36 0.52 0.57 0.53 0.44 0.35 0.29 0.37 0.51 0.67 0.75 0.94 1.31 1.26 1.00 0.88 0.69 0.65 0.51 0.45 0.58 0.71 0.82 0.82 0.81 0.82 0.94 1.12 1.29 1.38 1.43 1.58 1.80 1.93 1.91 1.95 2.04 2.14 2.30 2.27 2.24 2.11 1.92 1.71 1.60 1.56 1.53
0.18 0.18 0.23 0.36 0.44 0.43 0.41 0.36 0.30 0.34 0.52 0.70 0.74 1.07 1.46 1.57 1.20 0.89 0.75 0.75 0.75 0.65 0.71 0.87 0.93 0.97 1.03 1.12 1.18 1.30 1.41 1.50 1.59 1.66 1.69 1.74 1.82 1.90 2.02 2.17 2.26 2.25 2.12 1.86 1.76 1.71 1.60 1.54 1.50
0.14 0.15 0.18 0.23 0.28 0.41 0.38 0.30 0.28 0.37 0.42 0.51 0.64 0.98 1.36 1.39 1.22 1.10 1.20 1.18 1.23 1.03 0.92 0.95 1.10 1.25 1.22 1.25 1.41 1.49 1.54 1.56 1.58 1.59 1.67 1.77 1.94 2.01 2.15 2.25 2.44 2.47 2.22 1.86 1.89 1.80 1.57 1.52 1.54
0.08 0.19 0.25 0.19 0.20 0.26 0.24 0.28 0.27 0.25 0.31 0.40 0.55 0.79 1.05 1.02 1.09 1.40 1.71 1.58 1.56 1.38 1.13 1.01 0.98 1.14 1.30 1.33 1.38 1.55 1.62 1.64 1.72 1.86 1.97 2.13 2.31 2.30 2.61 2.69 2.92 2.89 2.52 2.22 2.16 2.02 1.80 1.61 1.57
0.05 0.15 0.16 0.11 0.10 0.13 0.16 0.22 0.24 0.28 0.51 0.77 0.91 1.00 1.12 1.38 1.47 1.62 1.71 1.62 1.60 1.58 1.36 1.23 1.15 1.12 1.24 1.29 1.51 1.84 1.77 1.86 2.04 2.35 2.46 2.67 2.80 2.83 2.58 3.08 3.46 3.39 3.15 2.80 2.68 2.54 2.13 1.77 1.68
0.04 0.09 0.09 0.09 0.07 0.08 0.13 0.15 0.19 0.30 0.67 1.04 1.28 1.37 1.43 1.69 1.94 1.97 2.02 2.03 1.94 1.88 1.65 1.43 1.37 1.41 1.40 1.54 1.54 1.79 2.07 2.31 2.41 2.48 2.56 2.78 2.75 2.69 2.75 3.20 3.48 3.45 3.28 3.16 3.23 3.00 2.51 2.43 2.53
0.02 0.02 0.04 0.06 0.04 0.05 0.08 0.11 0.20 0.43 0.84 1.00 1.24 1.44 1.50 1.91 2.03 2.04 2.48 2.58 2.18 1.93 1.93 1.83 1.76 1.75 1.78 1.64 1.80 1.85 1.96 2.18 2.38 2.57 2.56 2.71 3.07 3.09 3.16 3.39 3.33 3.39 3.38 3.63 3.39 3.44 3.21 2.89 2.63
0.01 0.02 0.03 0.04 0.04 0.04 0.05 0.11 0.21 0.42 0.65 0.77 0.98 1.16 1.21 1.71 2.05 2.30 2.81 2.78 2.49 2.32 2.25 2.12 2.08 2.13 2.12 2.12 2.15 1.97 2.07 2.20 2.33 2.53 2.71 2.74 3.00 3.16 3.31 3.43 3.36 2.98 2.94 3.21 3.46 3.34 3.44 3.38 3.14
0.01 0.03 0.05 0.04 0.05 0.05 0.06 0.15 0.26 0.48 0.61 0.85 0.86 1.03 1.25 1.65 1.95 2.38 2.72 2.98 2.85 2.64 2.49 2.32 2.29 2.38 2.45 2.45 2.53 2.48 2.25 2.39 2.37 2.64 2.70 2.76 2.89 3.14 3.41 3.51 3.45 3.07 2.91 3.13 3.32 3.22 3.52 3.44 3.38
0.03 0.07 0.11 0.09 0.07 0.08 0.10 0.30 0.53 0.62 0.72 0.89 1.03 1.13 1.35 1.72 2.22 2.50 2.76 3.07 3.12 3.07 2.91 2.68 2.58 2.74 2.96 3.08 3.07 2.91 2.70 2.52 2.54 2.68 2.72 2.82 2.85 3.13 3.19 3.21 3.24 3.21 3.00 3.15 3.25 3.26 3.39 3.23 3.06
0.06 0.09 0.15 0.16 0.11 0.11 0.18 0.62 0.76 0.63 0.80 1.01 1.09 1.32 1.62 2.01 2.45 2.95 3.12 3.03 3.07 3.22 3.18 2.89 2.68 3.15 3.51 3.59 3.59 3.38 3.11 2.76 2.69 2.74 2.82 2.92 3.00 3.13 3.31 3.08 3.02 3.32 3.21 3.34 3.65 3.58 3.64 3.70 3.54
0.09 0.16 0.15 0.19 0.15 0.15 0.27 0.77 0.73 0.55 0.68 0.88 1.10 1.33 1.75 2.27 2.63 2.81 2.88 3.09 3.23 3.32 3.30 3.25 3.35 3.49 3.65 3.74 3.85 3.62 3.38 3.17 2.91 2.81 2.80 2.89 3.03 3.14 3.49 3.37 3.40 3.42 3.45 3.49 3.15 3.70 4.00 4.05 3.88
0.10 0.12 0.17 0.19 0.17 0.20 0.30 0.57 0.65 0.65 0.82 0.94 1.24 1.45 1.60 1.99 2.45 2.57 2.71 3.17 3.27 3.45 3.59 3.53 3.64 3.81 4.09 4.29 4.47 4.10 3.72 3.45 3.17 2.97 3.02 3.06 3.27 3.40 3.68 3.58 3.52 3.44 3.58 3.58 3.59 4.04 4.01 3.75 3.77
0.04 0.10 0.21 0.20 0.18 0.25 0.34 0.55 0.75 0.83 0.99 1.29 1.50 1.50 1.46 1.76 2.25 2.65 2.96 3.11 3.45 3.66 3.83 3.84 4.07 4.48 4.82 4.68 4.36 4.17 3.92 3.70 3.47 3.20 3.09 3.11 3.10 3.30 3.66 3.51 3.76 3.66 3.53 3.47 3.45 3.79 3.90 3.63 3.81
0.04 0.08 0.18 0.20 0.20 0.31 0.45 0.68 0.85 1.05 1.27 1.36 1.29 1.28 1.43 1.81 2.32 2.70 2.99 3.15 3.42 3.69 4.12 4.25 4.46 4.82 4.95 4.82 4.69 4.53 4.39 3.98 3.84 3.69 3.51 3.14 2.95 3.06 3.12 3.46 3.28 3.36 3.50 3.43 3.55 3.86 3.77 3.41 3.87
0.05 0.10 0.16 0.17 0.25 0.41 0.53 0.96 1.13 1.29 1.41 1.39 1.32 1.53 1.54 1.63 2.05 2.34 2.46 2.66 2.84 2.99 3.24 3.54 4.04 4.55 4.75 4.82 4.73 4.68 4.69 4.22 3.95 3.80 3.62 3.24 2.96 2.84 3.00 3.18 3.26 3.32 3.21 3.32 3.57 3.65 3.71 3.61 3.73
0.07 0.08 0.09 0.13 0.25 0.53 0.62 1.23 1.42 1.62 1.72 1.59 1.52 1.46 1.45 1.69 2.00 2.02 1.85 2.01 2.28 2.27 2.58 3.01 3.47 3.83 4.06 4.15 4.16 4.21 4.16 4.07 3.98 3.84 3.46 3.21 2.95 2.81 2.88 3.02 3.11 3.18 3.01 3.14 2.99 3.14 3.64 3.75 3.57
0.06 0.07 0.10 0.15 0.28 0.52 0.55 0.92 1.45 1.81 1.99 1.61 1.51 1.38 1.45 1.67 1.71 1.67 1.68 1.80 1.96 2.12 2.43 2.75 3.08 3.38 3.54 3.65 3.73 3.84 3.73 3.75 3.65 3.47 3.26 3.05 2.87 2.71 2.50 2.63 2.87 2.96 2.85 2.78 2.79 3.06 3.20 3.18 3.20
0.06 0.10 0.19 0.27 0.49 0.87 0.71 0.83 1.39 1.75 1.61 1.40 1.33 1.12 1.23 1.42 1.51 1.56 1.65 1.78 1.90 2.20 2.55 2.85 3.09 3.31 3.38 3.17 3.08 3.10 3.16 3.22 3.17 3.02 2.85 2.63 2.56 2.46 2.29 2.34 2.58 2.69 2.68 2.64 2.62 2.69 2.76 2.83 2.87
0.09 0.20 0.66 1.09 1.42 1.32 0.81 0.92 1.51 1.40 1.06 0.99 1.07 1.05 1.05 1.09 1.23 1.35 1.54 1.74 1.92 2.03 2.13 2.57 3.00 3.17 3.08 2.83 2.64 2.57 2.71 2.83 2.75 2.64 2.56 2.47 2.33 2.24 2.22 2.25 2.38 2.40 2.40 2.37 2.44 2.50 2.55 2.72 2.82
0.14 0.26 0.75 1.05 1.15 1.13 0.91 1.31 1.80 1.39 0.95 0.81 0.91 0.90 0.79 0.75 0.73 0.81 0.99 1.11 1.26 1.31 1.33 1.51 1.79 2.03 2.11 2.01 2.03 2.09 2.13 2.21 2.21 2.40 2.25 2.23 2.17 2.05 2.09 2.06 2.04 2.06 2.08 2.07 2.38 2.42 2.54 2.72 2.80
0.25 0.30 0.32 0.55 0.76 1.16 1.17 1.37 1.47 1.20 0.95 0.90 0.98 0.89 0.71 0.67 0.63 0.69 0.79 0.85 0.95 0.98 1.02 1.16 1.41 1.65 1.69 1.71 1.76 1.81 1.82 1.87 1.90 1.96 1.92 1.89 1.95 1.90 1.91 1.89 2.00 1.98 2.03 2.16 2.36 2.37 2.44 2.71 2.76
0.22 0.30 0.46 0.73 0.97 1.13 1.22 1.59 1.75 1.56 1.29 1.12 1.07 0.94 0.72 0.60 0.58 0.65 0.76 0.80 0.90 1.01 1.16 1.28 1.39 1.50 1.50 1.51 1.52 1.48 1.58 1.60 1.65 1.65 1.59 1.61 1.68 1.70 1.74 1.77 1.83 1.88 1.91 2.05 2.27 2.27 2.34 2.49 2.54
0.26 0.33 0.49 0.68 0.74 0.96 1.34 1.50 1.26 1.23 1.22 1.28 1.23 1.02 0.78 0.60 0.54 0.60 0.72 0.79 0.86 0.99 1.13 1.27 1.36 1.45 1.43 1.39 1.46 1.52 1.53 1.57 1.55 1.52 1.45 1.51 1.59 1.63 1.65 1.72 1.82 1.85 1.87 2.01 2.16 2.15 2.27 2.26 2.27
0.24 0.35 0.50 0.76 0.81 0.84 1.01 1.17 0.79 0.82 0.94 1.03 1.04 0.83 0.65 0.58 0.56 0.64 0.75 0.80 0.94 1.01 1.07 1.10 1.20 1.33 1.34 1.36 1.49 1.68 1.65 1.65 1.62 1.49 1.43 1.49 1.50 1.54 1.57 1.68 1.76 1.75 1.84 2.03 2.11 2.11 2.27 2.32 2.30